SCP
0 0 1 1 1 1 0 0 0 0 0 1 1 1 1 1 1 1 1 1 2 2 1 2 2 2 2 2 2 1 1 1 1 1 1 2 2 2 2 2 2 2 2 2 2 1 1 1 1
0 1 1 1 1 1 0 0 0 0 0 1 1 1 1 1 1 1 1 1 2 2 2 2 2 2 2 2 2 1 1 1 1 1 1 2 2 2 2 2 2 2 2 2 2 2 1 1 1
0 1 1 1 1 0 0 0 0 0 1 1 0 1 1 1 1 1 1 1 2 2 2 2 2 2 1 1 2 1 1 1 1 1 1 2 2 2 2 2 2 2 2 2 2 3 2 1 1
1 2 2 1 0 0 0 0 0 0 0 0 1 1 1 1 1 1 1 1 2 2 2 2 2 2 1 1 2 1 1 1 1 1 1 2 2 1 1 1 1 2 2 2 2 2 2 2 1
2 2 2 1 0 0 0 0 0 0 0 0 1 1 2 2 2 1 1 1 2 2 2 2 2 2 2 1 2 1 1 1 1 1 1 1 1 1 1 1 1 1 1 1 1 2 2 1 1
1 1 1 0 0 0 0 0 0 0 0 0 1 2 2 2 2 2 1 1 2 2 2 2 2 2 2 2 2 2 1 1 1 1 1 1 1 1 1 1 1 1 1 1 1 1 1 1 1
0 0 0 0 0 0 0 0 0 0 1 1 1 2 3 3 2 2 2 2 2 2 3 2 2 2 2 2 2 2 2 1 1 1 1 1 1 1 1 1 1 1 1 1 1 1 1 1 1
0 0 0 0 0 0 0 0 0 0 1 1 1 2 3 3 3 4 4 3 2 2 3 3 2 2 2 2 2 2 2 2 2 2 2 2 2 2 1 1 1 1 1 1 1 1 1 1 1
0 0 0 0 0 0 0 0 0 1 1 1 2 3 3 3 3 3 4 3 2 2 3 3 3 3 3 3 3 3 2 2 2 2 2 2 2 2 2 1 1 1 1 1 1 1 1 1 1
0 0 0 0 0 0 0 0 1 1 1 2 3 4 4 3 2 3 3 3 3 3 4 4 4 3 3 3 3 3 3 3 3 2 2 2 2 2 2 1 1 2 2 1 1 2 2 1 1
0 0 0 0 0 0 0 1 1 1 2 2 3 4 5 4 3 3 3 4 4 4 5 5 6 5 5 4 4 4 4 3 3 3 2 2 2 2 1 1 1 1 2 2 2 2 2 1 1
0 0 0 0 0 0 1 1 1 1 1 2 2 4 5 4 3 3 3 4 6 7 7 8 9 9 8 7 6 4 4 3 3 3 2 2 2 2 1 1 1 1 1 2 2 2 2 2 1
0 0 0 0 1 1 1 1 1 1 1 2 2 3 5 5 3 3 3 4 7 10 11 11 12 11 10 9 7 5 4 3 3 2 2 2 2 1 1 1 1 1 1 1 2 2 2 2 2
0 0 0 0 1 1 1 1 1 1 2 4 4 5 6 6 5 3 3 4 8 14 15 14 13 12 10 9 7 6 5 4 3 2 2 2 2 2 2 1 1 1 1 1 1 1 2 2 3
0 0 0 0 0 0 1 1 1 2 4 7 7 6 6 6 5 3 3 4 9 16 18 15 13 11 10 9 7 6 5 4 3 3 2 2 2 2 2 2 2 1 1 1 1 1 2 2 2
0 0 0 0 0 0 0 1 2 3 5 6 6 5 5 6 4 3 4 6 12 17 17 14 12 10 10 9 7 5 5 5 4 3 3 3 2 2 2 2 2 2 1 1 1 1 2 2 2
0 0 0 0 0 0 0 1 2 3 3 3 3 3 4 5 4 3 4 7 14 17 16 13 12 11 10 9 7 6 6 6 5 4 4 3 3 2 2 2 2 2 2 1 1 2 2 2 3
0 0 0 0 0 0 0 1 1 2 2 2 3 3 4 4 4 4 4 8 15 17 15 13 12 12 11 9 8 8 8 7 6 5 5 4 4 3 2 2 3 2 2 2 2 2 2 3 3
0 0 0 0 0 0 1 1 1 2 2 2 2 3 4 5 5 5 5 7 13 16 14 12 12 13 12 10 9 9 9 8 7 6 6 6 5 4 3 3 3 3 3 3 3 3 3 3 3
0 0 0 0 0 0 1 1 1 2 2 2 3 4 5 6 7 6 5 7 11 13 12 11 11 11 12 11 10 10 10 8 7 6 6 6 5 5 4 4 4 4 4 4 4 4 4 3 3
0 0 0 0 0 1 1 1 1 2 3 3 4 5 6 7 7 6 5 6 9 11 11 10 11 11 12 12 12 11 10 7 6 6 6 6 6 5 5 5 5 5 5 5 5 4 4 3 2
0 0 0 0 0 1 1 1 1 2 3 4 5 5 5 6 6 6 6 7 8 9 9 11 13 14 13 13 12 12 10 7 6 6 6 6 6 6 6 6 6 6 6 5 5 4 3 3 2
0 0 0 0 0 0 1 1 1 2 3 5 6 5 4 4 5 6 7 8 8 7 8 10 14 16 14 13 13 12 10 8 7 7 7 7 6 6 6 7 7 7 7 5 4 3 3 3 3
0 0 0 0 0 0 0 1 1 2 3 6 8 6 4 4 4 5 5 6 7 7 7 9 14 16 15 14 13 12 11 9 9 8 7 7 6 6 6 7 7 7 7 5 4 3 3 3 3
0 0 0 0 0 0 0 1 1 3 4 7 7 5 4 4 4 4 4 4 5 6 6 8 12 15 15 13 11 10 10 9 8 8 8 7 6 6 6 6 7 8 7 6 5 4 3 2 2
0 0 0 0 0 0 0 1 2 3 5 6 5 4 4 4 4 4 4 4 4 4 6 7 10 13 12 10 9 8 8 8 8 7 8 8 7 6 5 6 7 7 6 6 5 5 4 3 2
0 0 0 0 0 0 0 1 2 3 4 4 4 4 5 5 6 6 5 4 4 4 5 7 9 10 9 7 7 7 7 8 8 8 8 8 8 7 6 6 6 5 5 5 5 5 5 4 3
0 0 0 0 0 0 1 1 2 3 3 4 4 4 6 7 7 7 6 5 4 4 5 6 8 9 8 7 7 6 6 7 8 8 8 9 9 8 7 6 5 4 3 3 4 5 5 5 5
0 0 0 0 0 1 1 1 2 4 4 4 4 5 6 7 7 7 6 6 5 5 5 5 6 7 7 8 8 7 6 6 6 7 8 9 9 9 7 6 4 3 2 2 3 4 4 4 4
0 0 0 0 1 1 1 1 3 5 5 5 5 5 5 6 5 6 6 6 6 6 6 5 5 5 6 7 7 7 6 5 5 6 8 8 8 8 8 6 4 3 2 2 2 3 3 3 4
Wind_Speed
8 11 9 8 8 6 2 2 6 8 9 10 10 10 14 14 10 8 7 11 17 16 15 14 12 12 11 10 10 10 10 10 9 9 9 9 9 9 10 10 10 10 10 10 9 9 9 9 9
9 12 10 8 7 3 2 3 6 8 8 8 9 10 13 13 12 11 9 11 16 16 14 13 13 12 11 10 10 10 10 10 9 9 9 9 8 8 8 9 9 8 9 9 8 8 8 8 7
12 14 8 7 5 2 2 4 5 8 8 7 8 9 10 9 11 9 10 11 15 16 15 14 13 12 11 11 10 10 9 9 9 9 9 8 8 7 6 7 7 7 8 7 7 7 7 6 6
8 8 8 6 4 2 1 4 5 6 6 6 8 9 11 9 9 12 11 11 14 16 16 14 13 12 11 11 10 10 9 9 9 8 8 8 7 6 6 6 6 7 6 6 6 6 6 5 5
10 8 9 6 5 2 2 4 3 5 4 6 8 12 12 11 14 14 10 11 13 16 16 14 14 13 12 11 10 10 9 8 8 8 8 7 6 6 6 5 6 6 5 5 6 5 5 5 5
8 8 9 5 4 2 1 3 2 4 3 5 9 12 11 11 12 12 11 10 13 16 16 14 14 14 12 11 10 9 9 8 8 8 8 7 6 6 5 5 5 5 5 5 5 5 5 5 4
10 11 11 7 3 3 1 1 1 3 3 4 6 9 11 12 9 10 10 10 13 15 15 13 13 12 12 11 10 10 9 9 8 8 8 8 7 7 6 5 5 6 6 5 5 5 5 5 4
10 10 12 7 4 2 1 1 2 2 4 2 2 7 11 13 11 10 10 10 11 12 12 12 12 12 11 11 11 11 10 9 9 8 8 8 7 8 8 7 6 6 6 7 6 6 5 5 5
12 10 10 8 3 1 2 1 2 3 3 2 5 10 16 17 14 11 10 10 9 9 9 9 10 10 10 10 11 11 10 9 8 8 9 8 6 6 6 6 8 8 7 8 8 7 7 6 6
9 10 10 7 4 1 3 4 2 2 3 5 8 14 17 15 13 12 11 11 10 8 8 8 8 8 8 7 8 6 6 7 5 4 5 4 3 3 4 7 8 8 8 8 8 8 7 6 4
11 13 10 8 6 3 5 4 3 3 1 2 7 13 14 14 12 11 10 10 10 8 6 8 7 5 5 5 5 3 3 4 4 4 2 2 2 3 3 3 4 5 6 5 5 6 4 4 2
13 12 10 9 8 6 7 5 4 3 1 3 6 10 12 12 11 9 10 10 10 9 7 7 8 5 4 4 3 3 3 3 3 3 1 1 1 1 2 1 2 3 3 3 2 2 2 1 1
14 12 10 8 8 9 6 5 5 4 1 4 7 9 11 10 9 8 9 10 9 9 7 6 7 5 4 3 1 3 3 3 4 3 2 1 1 1 2 1 1 2 2 2 2 1 2 1 1
13 12 12 10 11 9 7 6 7 4 2 4 7 8 9 9 9 8 8 8 9 8 7 6 7 6 5 3 2 2 3 3 4 3 3 1 1 1 1 1 1 1 1 1 1 1 2 1 1
14 14 13 12 11 9 8 9 8 6 5 5 6 7 7 7 7 7 7 7 8 7 7 6 6 6 4 3 3 2 3 3 3 3 3 2 2 2 1 1 2 1 1 2 2 2 2 2 2
15 14 14 13 11 10 10 10 6 5 7 6 6 6 7 7 7 6 7 7 8 7 7 5 6 6 4 2 2 1 2 3 2 3 3 3 2 2 1 1 2 2 2 2 2 1 2 1 2
13 13 13 13 11 11 11 11 6 7 7 7 7 7 7 7 7 7 7 7 8 8 7 5 5 6 4 3 2 2 2 2 2 2 3 3 2 2 2 1 1 2 1 2 2 2 1 2 2
11 12 13 13 10 10 10 8 7 7 8 7 7 7 7 7 7 7 8 7 8 8 7 6 5 5 4 3 2 1 2 2 2 3 3 3 2 2 2 1 2 2 1 1 1 1 1 1 1
14 15 14 12 11 11 9 8 9 7 8 7 7 7 8 8 8 8 7 7 8 7 6 6 6 5 4 3 3 3 2 2 2 3 4 4 3 2 2 2 2 2 2 2 2 1 2 1 1
16 16 15 13 11 8 9 9 10 7 7 6 7 7 7 8 8 9 8 7 7 7 6 6 5 5 4 3 2 2 2 2 2 2 3 3 3 3 3 2 2 2 2 2 2 1 1 2 2
16 15 14 12 11 10 11 11 9 8 9 7 6 6 7 7 8 8 8 7 8 7 6 5 5 5 4 4 3 2 2 2 2 3 2 3 3 3 2 3 2 2 2 2 3 2 2 1 2
14 13 13 13 12 10 11 10 9 7 6 6 6 6 7 7 8 9 9 8 8 7 7 5 5 4 4 4 4 4 3 3 3 2 2 3 3 3 3 3 3 2 2 2 3 3 2 2 2
14 12 12 14 14 13 12 10 7 5 6 6 6 6 7 9 9 9 9 8 7 7 7 6 5 4 4 3 3 3 2 2 2 2 3 3 3 3 3 3 3 3 2 2 2 2 3 2 2
12 12 12 12 11 13 13 10 8 5 6 6 6 6 6 7 8 9 9 8 7 7 6 6 6 4 4 3 3 3 2 2 2 2 2 2 2 2 3 3 3 3 3 2 2 2 3 3 2
13 10 8 9 10 11 9 8 5 1 4 6 6 6 6 6 6 8 9 9 8 8 7 7 6 5 5 4 3 3 2 2 2 2 2 2 1 2 2 3 3 3 3 3 3 3 3 4 3
12 12 10 9 9 8 7 7 2 2 2 4 6 6 7 7 7 7 8 9 8 8 7 7 7 5 4 4 3 3 3 2 2 1 1 2 1 1 2 2 2 3 3 4 3 3 4 3 3
13 13 13 12 13 10 7 6 3 3 3 4 5 6 7 7 7 7 7 8 8 8 7 7 7 6 5 4 3 3 3 2 2 2 2 1 1 2 3 2 3 2 3 3 4 3 4 3 4
14 12 8 9 9 10 9 7 4 5 4 4 4 4 5 6 6 6 6 7 8 7 7 6 6 5 5 4 3 3 3 3 2 1 2 1 1 1 2 3 3 3 3 3 3 3 4 3 3
13 13 11 9 8 9 9 5 2 2 3 4 3 4 4 5 6 5 6 6 7 7 7 6 6 5 4 4 3 3 3 3 2 2 2 1 1 2 2 2 2 3 3 3 3 3 4 4 4
13 12 11 8 9 8 7 4 2 5 3 3 3 4 4 5 5 5 5 5 5 7 7 6 5 5 5 4 4 3 3 3 3 2 1 1 2 2 2 2 2 3 3 3 4 4 4 4 4
Wind_Direction
240 244 237 248 243 246 286 43 60 66 65 60 52 54 56 54 55 87 105 103 108 114 122 122 118 117 115 116 116 115 117 118 114 111 108 107 105 103 102 103 104 105 105 105 105 101 97 96 97
257 254 244 244 254 270 12 51 61 69 73 77 66 68 73 71 81 101 108 110 115 120 126 121 121 118 117 118 118 117 118 120 118 116 113 110 109 108 111 111 110 107 106 107 107 103 100 100 104
264 261 261 249 260 272 40 63 77 84 87 85 82 66 66 77 88 102 114 121 119 120 117 118 124 120 118 120 120 121 122 123 123 121 118 115 114 113 116 117 115 111 108 108 108 106 106 107 109
257 243 238 255 275 273 85 72 81 77 78 84 89 86 79 71 94 111 126 131 123 118 117 122 125 123 120 121 123 124 126 128 128 125 123 122 124 128 130 125 122 117 115 119 117 114 114 117 124
244 258 251 263 272 272 78 82 75 87 80 88 91 97 96 92 104 118 133 129 121 116 119 126 128 127 126 125 125 125 125 127 129 128 128 131 137 142 144 141 135 129 129 130 125 121 128 136 147
257 258 265 257 280 290 78 98 95 85 85 101 102 107 107 114 119 129 131 128 119 118 121 129 133 133 131 129 129 129 127 129 132 133 134 140 147 154 154 154 151 144 144 145 140 140 150 155 160
260 280 281 281 280 294 338 70 91 89 79 60 96 112 121 119 122 130 129 123 119 121 128 138 142 141 139 136 137 138 135 136 139 144 150 155 160 166 166 162 161 154 155 157 158 162 164 168 175
263 282 286 276 256 252 270 204 107 72 80 79 92 119 130 131 142 140 132 124 122 125 133 143 146 147 151 148 148 148 148 149 154 160 165 170 175 180 178 174 165 167 170 170 171 176 181 185 189
259 266 276 281 281 228 270 279 127 148 155 111 69 94 126 140 149 148 138 133 130 130 133 142 142 149 153 149 151 157 157 159 163 171 180 182 192 184 182 171 169 178 181 182 183 189 195 198 199
241 257 265 286 308 337 295 280 264 198 174 131 116 113 129 143 152 157 154 147 140 140 145 145 142 147 149 142 148 163 158 154 169 161 173 184 171 160 158 155 172 178 184 189 196 201 205 210 204
251 260 273 289 306 309 277 278 298 286 263 115 133 137 145 151 161 165 157 150 143 150 158 144 138 140 138 131 147 152 146 148 157 139 168 161 148 146 145 158 165 178 186 199 196 203 214 210 203
253 263 275 289 301 291 282 291 304 304 262 135 135 143 152 162 167 166 154 148 147 154 158 142 134 125 111 107 129 146 144 147 142 134 161 138 137 138 139 153 156 175 177 185 179 197 200 203 139
256 259 261 263 270 271 269 278 280 294 237 149 157 162 164 167 169 164 153 150 148 149 147 134 122 118 109 111 174 143 126 132 122 129 136 136 132 123 132 150 143 182 158 161 163 173 140 108 79
272 271 266 255 249 251 253 259 267 258 214 183 172 169 170 168 168 157 155 152 149 146 143 136 131 127 130 146 158 127 134 141 128 132 136 149 130 120 131 147 137 150 133 125 135 144 128 139 141
270 270 266 254 251 246 245 244 245 224 190 190 179 172 170 166 154 152 151 144 139 137 136 137 144 137 148 154 171 159 152 141 131 138 145 148 136 135 152 157 154 157 152 138 157 158 141 171 164
263 259 259 258 246 238 238 251 237 206 193 194 185 172 164 159 160 159 148 138 134 139 138 152 154 138 141 149 173 170 145 131 137 143 143 143 154 152 164 166 151 161 170 144 149 155 162 154 143
255 254 258 260 245 237 232 245 232 222 213 198 184 175 168 160 164 156 146 140 140 139 144 154 139 145 154 158 177 173 133 137 149 142 136 147 164 163 165 168 149 159 167 146 164 144 152 148 143
251 255 254 257 252 240 236 242 233 222 218 206 189 178 170 170 164 150 142 138 136 141 145 151 148 146 151 155 172 172 157 163 159 145 146 147 164 160 151 172 160 160 157 139 133 134 148 138 150
258 265 265 263 258 252 242 243 241 228 217 207 193 182 176 174 161 145 139 138 138 138 146 152 159 152 158 162 177 177 175 179 169 162 145 154 166 164 171 187 161 166 159 151 154 148 169 169 144
250 257 264 258 249 249 249 250 248 225 221 213 198 187 177 170 160 148 144 143 146 149 154 156 157 158 172 162 174 180 172 179 164 145 147 161 166 175 184 175 169 162 158 160 167 169 190 188 160
252 252 258 266 269 260 260 253 242 221 210 195 195 188 176 171 160 155 155 156 157 156 159 164 161 161 171 162 171 180 166 177 168 157 160 172 172 179 176 169 177 167 174 171 176 183 199 205 183
256 252 259 264 265 260 258 261 243 225 205 188 193 190 176 169 164 158 159 163 163 160 160 149 148 153 164 176 182 182 177 184 179 163 161 165 166 172 171 176 178 180 180 173 186 180 188 200 213
261 261 262 264 262 268 259 261 250 210 215 193 189 191 183 166 166 163 161 161 160 157 154 148 139 143 154 172 174 179 181 178 159 145 154 165 167 178 180 177 174 179 184 184 181 165 189 200 214
262 264 261 261 258 258 259 261 261 220 204 190 182 186 168 159 166 163 158 153 152 149 149 145 145 151 152 164 161 168 176 171 161 151 165 173 163 173 179 180 173 179 184 185 182 186 195 207 220
248 251 251 246 246 254 265 257 267 235 203 191 176 169 154 156 153 158 158 154 153 152 152 152 151 154 157 161 162 164 174 173 177 179 180 176 167 173 176 182 179 191 191 187 191 191 207 206 206
242 247 249 254 259 265 255 250 227 207 173 149 153 153 152 155 156 161 155 153 155 154 151 151 151 149 158 162 160 170 183 185 172 186 195 191 180 183 166 175 184 196 199 199 194 199 206 206 208
245 242 252 265 273 271 252 238 199 173 137 128 134 141 141 152 156 152 153 148 150 153 151 155 152 155 163 167 173 179 188 186 174 190 209 210 193 185 165 188 194 199 210 208 194 209 211 198 203
244 251 254 254 266 273 266 242 219 171 136 127 145 140 143 148 143 147 152 148 150 149 147 149 152 160 167 169 183 180 180 184 190 203 201 199 201 191 182 188 189 195 206 209 207 214 208 204 211
244 247 250 251 255 263 272 269 132 124 126 137 142 136 149 149 147 145 146 147 149 146 149 152 153 160 169 170 173 177 184 185 189 210 195 187 198 195 199 194 194 201 208 205 211 221 209 205 212
253 250 251 252 254 263 268 276 102 118 105 113 122 125 138 135 135 145 134 131 144 150 151 153 162 169 171 167 166 168 172 181 191 194 188 191 201 206 206 201 210 215 215 213 214 216 213 210 209